Hourly Weather Russkoe Vasilkovo

Today, 20 April, Tuesday

Time Temperature Precipitation Wind Pressure Humidity
00:00 0°C° 0 mm 3 mps 753 mmHg 69%
01:00 0°C° 0 mm 3 mps 753 mmHg 71%
02:00 -1°C° 0 mm 3 mps 753 mmHg 74%
03:00 -1°C° 0 mm 3 mps 753 mmHg 75%
04:00 -1°C° 0 mm 3 mps 753 mmHg 76%
05:00 -2°C° 0 mm 3 mps 752 mmHg 77%
06:00 -1°C° 0 mm 4 mps 752 mmHg 69%
07:00 0°C° 0 mm 4 mps 752 mmHg 61%
08:00 +2°C° 0 mm 5 mps 752 mmHg 53%
09:00 +3°C° 0 mm 5 mps 752 mmHg 51%
10:00 +5°C° 0 mm 5 mps 751 mmHg 50%
11:00 +6°C° 0 mm 5 mps 751 mmHg 48%
12:00 +7°C° 0 mm 5 mps 751 mmHg 48%
13:00 +7°C° 0 mm 5 mps 750 mmHg 48%
14:00 +8°C° 0 mm 5 mps 750 mmHg 48%
15:00 +7°C° 0 mm 4 mps 750 mmHg 54%
16:00 +6°C° 0 mm 4 mps 749 mmHg 59%
17:00 +5°C° 0 mm 3 mps 749 mmHg 65%
18:00 +5°C° 0 mm 3 mps 748 mmHg 65%
19:00 +5°C° 0 mm 3 mps 748 mmHg 66%
20:00 +4°C° 0 mm 3 mps 747 mmHg 66%
21:00 +4°C° 0 mm 4 mps 747 mmHg 66%
22:00 +4°C° 0 mm 4 mps 746 mmHg 65%
23:00 +4°C° 0 mm 4 mps 745 mmHg 65%

Tomorrow, 21 April, Wednesday

Time Temperature Precipitation Wind Pressure Humidity
00:00 +3°C° 0 mm 4 mps 745 mmHg 65%
01:00 +3°C° 0 mm 4 mps 744 mmHg 65%
02:00 +1°C° 0 mm 4 mps 743 mmHg 65%
03:00 0°C° 0.1 mm 4 mps 742 mmHg 70%
04:00 0°C° 0.1 mm 4 mps 741 mmHg 75%
05:00 -1°C° 0.1 mm 5 mps 740 mmHg 80%
06:00 -1°C° 0.9 mm 5 mps 739 mmHg 85%
07:00 -1°C° 0.9 mm 5 mps 739 mmHg 90%
08:00 -1°C° 0.9 mm 5 mps 738 mmHg 95%
09:00 -1°C° 1.2 mm 5 mps 737 mmHg 95%
10:00 -1°C° 1.2 mm 5 mps 736 mmHg 96%
11:00 -1°C° 1.2 mm 4 mps 735 mmHg 97%
12:00 -1°C° 1.2 mm 4 mps 734 mmHg 97%
13:00 -1°C° 1.2 mm 4 mps 734 mmHg 97%
14:00 -1°C° 1.2 mm 4 mps 733 mmHg 98%
15:00 0°C° 0.7 mm 3 mps 733 mmHg 98%
16:00 +1°C° 0.7 mm 2 mps 733 mmHg 98%
17:00 +2°C° 0.7 mm 2 mps 733 mmHg 98%
18:00 +1°C° 0.2 mm 2 mps 733 mmHg 98%
19:00 0°C° 0.2 mm 3 mps 734 mmHg 98%
20:00 -1°C° 0.2 mm 4 mps 735 mmHg 97%
21:00 -1°C° 0.1 mm 4 mps 735 mmHg 97%
22:00 -1°C° 0.1 mm 4 mps 736 mmHg 97%
23:00 -1°C° 0.1 mm 4 mps 736 mmHg 97%

Day after tomorrow, 22 April, Thursday

Time Temperature Precipitation Wind Pressure Humidity
00:00 -1°C° 0.1 mm 4 mps 737 mmHg 97%
01:00 0°C° 0.1 mm 3 mps 737 mmHg 97%
02:00 0°C° 0.1 mm 3 mps 738 mmHg 98%
03:00 0°C° 0.2 mm 3 mps 738 mmHg 98%
04:00 0°C° 0.2 mm 3 mps 739 mmHg 98%
05:00 0°C° 0.2 mm 3 mps 739 mmHg 98%
06:00 +1°C° 0 mm 3 mps 740 mmHg 97%
07:00 +2°C° 0 mm 3 mps 740 mmHg 95%
08:00 +3°C° 0 mm 3 mps 741 mmHg 94%
09:00 +4°C° 0.1 mm 3 mps 741 mmHg 92%
10:00 +4°C° 0.1 mm 3 mps 741 mmHg 90%
11:00 +5°C° 0.1 mm 3 mps 742 mmHg 88%
12:00 +7°C° 0.1 mm 4 mps 742 mmHg 83%
13:00 +8°C° 0.1 mm 4 mps 742 mmHg 79%
14:00 +10°C° 0.1 mm 4 mps 742 mmHg 74%
15:00 +10°C° 0.3 mm 4 mps 742 mmHg 75%
16:00 +8°C° 0.3 mm 4 mps 742 mmHg 77%
17:00 +8°C° 0.3 mm 4 mps 743 mmHg 79%
18:00 +7°C° 0 mm 4 mps 743 mmHg 83%
19:00 +7°C° 0 mm 3 mps 743 mmHg 87%
20:00 +4°C° 0 mm 3 mps 743 mmHg 91%
21:00 +4°C° 0 mm 3 mps 743 mmHg 91%
22:00 +4°C° 0 mm 3 mps 743 mmHg 92%
23:00 +4°C° 0 mm 3 mps 743 mmHg 93%

23 April, Friday

Time Temperature Precipitation Wind Pressure Humidity
00:00 +3°C° 0 mm 3 mps 744 mmHg 93%
01:00 +3°C° 0 mm 3 mps 744 mmHg 93%
02:00 +3°C° 0 mm 3 mps 744 mmHg 93%
03:00 +3°C° 0 mm 3 mps 743 mmHg 91%
04:00 +3°C° 0 mm 4 mps 743 mmHg 90%
05:00 +3°C° 0 mm 4 mps 743 mmHg 88%
06:00 +5°C° 0 mm 4 mps 743 mmHg 85%
07:00 +6°C° 0 mm 5 mps 743 mmHg 81%
08:00 +8°C° 0 mm 5 mps 743 mmHg 78%
09:00 +9°C° 0 mm 5 mps 743 mmHg 75%
10:00 +11°C° 0 mm 6 mps 743 mmHg 71%
11:00 +13°C° 0 mm 6 mps 742 mmHg 68%
12:00 +13°C° 0.3 mm 5 mps 742 mmHg 71%
13:00 +12°C° 0.3 mm 5 mps 742 mmHg 74%
14:00 +12°C° 0.3 mm 5 mps 742 mmHg 76%
15:00 +12°C° 0.4 mm 4 mps 742 mmHg 79%
16:00 +11°C° 0.4 mm 3 mps 742 mmHg 82%
17:00 +11°C° 0.4 mm 3 mps 742 mmHg 85%
18:00 +10°C° 0.4 mm 3 mps 741 mmHg 86%
19:00 +10°C° 0.4 mm 4 mps 741 mmHg 88%
20:00 +8°C° 0.4 mm 4 mps 740 mmHg 89%
21:00 +8°C° 0.4 mm 3 mps 740 mmHg 92%
22:00 +7°C° 0.4 mm 2 mps 740 mmHg 94%
23:00 +7°C° 0.4 mm 1 mps 740 mmHg 96%

24 April, Saturday

Time Temperature Precipitation Wind Pressure Humidity
00:00 +7°C° 0.7 mm 1 mps 740 mmHg 97%
01:00 +7°C° 0.7 mm 1 mps 739 mmHg 97%
02:00 +7°C° 0.7 mm 1 mps 739 mmHg 97%
03:00 +6°C° 0.5 mm 2 mps 739 mmHg 97%
04:00 +5°C° 0.5 mm 2 mps 738 mmHg 96%
05:00 +5°C° 0.5 mm 2 mps 738 mmHg 96%
06:00 +4°C° 0.8 mm 2 mps 738 mmHg 96%
07:00 +3°C° 0.8 mm 2 mps 739 mmHg 97%
08:00 +2°C° 0.8 mm 2 mps 739 mmHg 97%
09:00 +3°C° 0.6 mm 2 mps 739 mmHg 97%
10:00 +3°C° 0.6 mm 2 mps 739 mmHg 97%
11:00 +4°C° 0.6 mm 1 mps 739 mmHg 97%
12:00 +3°C° 0.6 mm 2 mps 739 mmHg 96%
13:00 +3°C° 0.6 mm 2 mps 739 mmHg 95%
14:00 +3°C° 0.6 mm 2 mps 739 mmHg 94%
15:00 +3°C° 0.3 mm 2 mps 738 mmHg 94%
16:00 +3°C° 0.3 mm 2 mps 738 mmHg 94%
17:00 +3°C° 0.3 mm 2 mps 738 mmHg 94%
18:00 +3°C° 0.1 mm 2 mps 738 mmHg 95%
19:00 +3°C° 0.1 mm 2 mps 737 mmHg 95%
20:00 +3°C° 0.1 mm 2 mps 737 mmHg 96%
21:00 +3°C° 0.4 mm 2 mps 736 mmHg 96%
22:00 +2°C° 0.4 mm 3 mps 736 mmHg 97%
23:00 +2°C° 0.4 mm 3 mps 735 mmHg 97%

25 April, Sunday

Time Temperature Precipitation Wind Pressure Humidity
00:00 +2°C° 0.6 mm 3 mps 735 mmHg 97%
01:00 +1°C° 0.6 mm 4 mps 734 mmHg 97%
02:00 +1°C° 0.6 mm 4 mps 734 mmHg 97%
03:00 0°C° 0.7 mm 4 mps 734 mmHg 97%
04:00 0°C° 0.7 mm 4 mps 733 mmHg 97%
05:00 0°C° 0.7 mm 4 mps 733 mmHg 97%
06:00 0°C° 0.8 mm 5 mps 733 mmHg 97%
07:00 0°C° 0.8 mm 5 mps 733 mmHg 96%
08:00 -1°C° 0.8 mm 5 mps 733 mmHg 96%
09:00 -2°C° 1 mm 6 mps 733 mmHg 96%
10:00 -2°C° 1 mm 6 mps 733 mmHg 96%
11:00 -2°C° 1 mm 6 mps 733 mmHg 95%
12:00 -1°C° 0.6 mm 6 mps 733 mmHg 91%
13:00 +1°C° 0.6 mm 6 mps 733 mmHg 86%
14:00 +1°C° 0.6 mm 6 mps 734 mmHg 82%
15:00 +1°C° 0.1 mm 6 mps 734 mmHg 82%
16:00 +1°C° 0.1 mm 6 mps 734 mmHg 82%
17:00 +1°C° 0.1 mm 6 mps 734 mmHg 82%
18:00 +1°C° 0.3 mm 5 mps 734 mmHg 86%
19:00 0°C° 0.3 mm 5 mps 734 mmHg 90%
20:00 -1°C° 0.3 mm 5 mps 733 mmHg 93%
21:00 -1°C° 0.3 mm 5 mps 733 mmHg 94%
22:00 -1°C° 0.3 mm 5 mps 733 mmHg 95%
23:00 -1°C° 0.3 mm 5 mps 732 mmHg 96%
Show more